When you browse on this site, cookies collect data to enhance your experience and personalize the content and advertising you see.
Visit our Privacy Policy to learn more. By continuing to use the site, you agree to this use of cookies and data.
  • In United Kingdom
  • List of Countries
  • For 7 days
  • Water Temperature
  • Satellite Maps
  • Weather Map
  • Weather Widgets
  • user-avatar
    Login

    Hourly Weather Ibigs

    Today, 19 April, Friday

    Time Temperature Precipitation Wind Pressure Humidity
    00:00 +22°C° 0.2 mm 1 mps 648 mmHg 74%
    01:00 +20°C° 0.2 mm 0 mps 648 mmHg 75%
    02:00 +19°C° 0.4 mm 0 mps 648 mmHg 75%
    03:00 +19°C° 0.4 mm 0 mps 648 mmHg 76%
    04:00 +19°C° 0.4 mm 0 mps 647 mmHg 77%
    05:00 +19°C° 0.2 mm 0 mps 648 mmHg 76%
    06:00 +20°C° 0.2 mm 0 mps 648 mmHg 76%
    07:00 +20°C° 0.2 mm 0 mps 649 mmHg 76%
    08:00 +21°C° 0.3 mm 0 mps 649 mmHg 72%
    09:00 +24°C° 0.3 mm 1 mps 650 mmHg 69%
    10:00 +25°C° 0.3 mm 1 mps 650 mmHg 66%
    11:00 +26°C° 0.2 mm 1 mps 650 mmHg 62%
    12:00 +27°C° 0.2 mm 1 mps 650 mmHg 58%
    13:00 +28°C° 0.2 mm 2 mps 649 mmHg 55%
    14:00 +28°C° 0.3 mm 2 mps 649 mmHg 56%
    15:00 +27°C° 0.3 mm 1 mps 648 mmHg 58%
    16:00 +27°C° 0.3 mm 1 mps 647 mmHg 60%
    17:00 +25°C° 0.4 mm 1 mps 647 mmHg 65%
    18:00 +24°C° 0.4 mm 1 mps 648 mmHg 70%
    19:00 +21°C° 0.4 mm 0 mps 648 mmHg 76%
    20:00 +20°C° 0.3 mm 0 mps 648 mmHg 76%
    21:00 +22°C° 0.3 mm 1 mps 649 mmHg 75%
    22:00 +22°C° 0.3 mm 1 mps 649 mmHg 75%
    23:00 +20°C° 0.3 mm 0 mps 649 mmHg 76%

    Tomorrow, 20 April, Saturday

    Time Temperature Precipitation Wind Pressure Humidity
    00:00 +20°C° 0.3 mm 0 mps 649 mmHg 76%
    01:00 +19°C° 0.3 mm 0 mps 649 mmHg 77%
    02:00 +19°C° 0.3 mm 0 mps 648 mmHg 77%
    03:00 +19°C° 0.3 mm 0 mps 648 mmHg 78%
    04:00 +19°C° 0.3 mm 0 mps 648 mmHg 79%
    05:00 +19°C° 0.2 mm 0 mps 648 mmHg 78%
    06:00 +19°C° 0.2 mm 0 mps 649 mmHg 77%
    07:00 +20°C° 0.2 mm 0 mps 649 mmHg 76%
    08:00 +21°C° 0.2 mm 0 mps 650 mmHg 72%
    09:00 +24°C° 0.2 mm 1 mps 651 mmHg 68%
    10:00 +25°C° 0.2 mm 2 mps 651 mmHg 64%
    11:00 +26°C° 0.3 mm 2 mps 651 mmHg 62%
    12:00 +26°C° 0.3 mm 2 mps 650 mmHg 60%
    13:00 +27°C° 0.3 mm 2 mps 650 mmHg 59%
    14:00 +27°C° 0.4 mm 2 mps 649 mmHg 61%
    15:00 +26°C° 0.4 mm 2 mps 648 mmHg 63%
    16:00 +26°C° 0.4 mm 2 mps 647 mmHg 64%
    17:00 +24°C° 0.4 mm 1 mps 648 mmHg 71%
    18:00 +23°C° 0.4 mm 1 mps 648 mmHg 77%
    19:00 +20°C° 0.4 mm 0 mps 648 mmHg 83%
    20:00 +20°C° 0.3 mm 0 mps 648 mmHg 83%
    21:00 +19°C° 0.3 mm 0 mps 649 mmHg 82%
    22:00 +19°C° 0.3 mm 0 mps 650 mmHg 82%
    23:00 +19°C° 0.3 mm 0 mps 649 mmHg 83%

    Day after tomorrow, 21 April, Sunday

    Time Temperature Precipitation Wind Pressure Humidity
    00:00 +19°C° 0.3 mm 0 mps 649 mmHg 83%
    01:00 +18°C° 0.3 mm 0 mps 649 mmHg 84%
    02:00 +18°C° 0.3 mm 0 mps 648 mmHg 85%
    03:00 +18°C° 0.3 mm 0 mps 648 mmHg 86%
    04:00 +18°C° 0.3 mm 0 mps 648 mmHg 87%
    05:00 +18°C° 0.2 mm 0 mps 648 mmHg 85%
    06:00 +19°C° 0.2 mm 0 mps 649 mmHg 83%
    07:00 +19°C° 0.2 mm 0 mps 649 mmHg 81%
    08:00 +23°C° 0.3 mm 1 mps 650 mmHg 76%
    09:00 +24°C° 0.3 mm 1 mps 651 mmHg 72%
    10:00 +25°C° 0.3 mm 2 mps 651 mmHg 68%
    11:00 +25°C° 0.5 mm 2 mps 651 mmHg 68%
    12:00 +26°C° 0.5 mm 2 mps 650 mmHg 68%
    13:00 +26°C° 0.5 mm 2 mps 649 mmHg 68%
    14:00 +26°C° 1 mm 1 mps 649 mmHg 68%
    15:00 +26°C° 1 mm 1 mps 648 mmHg 68%
    16:00 +25°C° 1 mm 1 mps 647 mmHg 68%
    17:00 +24°C° 1.3 mm 1 mps 648 mmHg 72%
    18:00 +21°C° 1.3 mm 0 mps 648 mmHg 77%
    19:00 +20°C° 1.3 mm 0 mps 648 mmHg 81%
    20:00 +20°C° 1.4 mm 0 mps 649 mmHg 81%
    21:00 +22°C° 1.4 mm 1 mps 649 mmHg 81%
    22:00 +21°C° 1.4 mm 1 mps 649 mmHg 81%
    23:00 +21°C° 1.2 mm 1 mps 649 mmHg 82%

    22 April, Monday

    Time Temperature Precipitation Wind Pressure Humidity
    00:00 +21°C° 1.2 mm 1 mps 649 mmHg 82%
    01:00 +21°C° 1.2 mm 1 mps 648 mmHg 82%
    02:00 +18°C° 0.8 mm 0 mps 648 mmHg 83%
    03:00 +18°C° 0.8 mm 0 mps 648 mmHg 83%
    04:00 +18°C° 0.8 mm 0 mps 647 mmHg 84%
    05:00 +18°C° 0.4 mm 0 mps 648 mmHg 83%
    06:00 +18°C° 0.4 mm 0 mps 649 mmHg 82%
    07:00 +19°C° 0.4 mm 0 mps 649 mmHg 81%
    08:00 +20°C° 0.2 mm 0 mps 650 mmHg 77%
    09:00 +23°C° 0.2 mm 1 mps 650 mmHg 73%
    10:00 +24°C° 0.2 mm 1 mps 651 mmHg 69%
    11:00 +25°C° 0.2 mm 1 mps 650 mmHg 68%
    12:00 +25°C° 0.2 mm 2 mps 650 mmHg 66%
    13:00 +26°C° 0.2 mm 2 mps 649 mmHg 64%
    14:00 +25°C° 0.3 mm 2 mps 648 mmHg 67%
    15:00 +25°C° 0.3 mm 1 mps 648 mmHg 70%
    16:00 +24°C° 0.3 mm 1 mps 647 mmHg 73%
    17:00 +23°C° 0.3 mm 1 mps 647 mmHg 77%
    18:00 +22°C° 0.3 mm 1 mps 648 mmHg 82%
    19:00 +19°C° 0.3 mm 0 mps 648 mmHg 86%
    20:00 +19°C° 0.2 mm 0 mps 648 mmHg 85%
    21:00 +19°C° 0.2 mm 0 mps 649 mmHg 84%
    22:00 +19°C° 0.2 mm 0 mps 649 mmHg 84%
    23:00 +18°C° 0.2 mm 0 mps 649 mmHg 84%

    23 April, Tuesday

    Time Temperature Precipitation Wind Pressure Humidity
    00:00 +18°C° 0.2 mm 0 mps 648 mmHg 85%
    01:00 +18°C° 0.2 mm 0 mps 648 mmHg 85%
    02:00 +18°C° 0.2 mm 0 mps 648 mmHg 86%
    03:00 +18°C° 0.2 mm 0 mps 648 mmHg 86%
    04:00 +17°C° 0.2 mm 0 mps 647 mmHg 86%
    05:00 +18°C° 0.2 mm 0 mps 648 mmHg 85%
    06:00 +18°C° 0.2 mm 0 mps 649 mmHg 83%
    07:00 +19°C° 0.2 mm 0 mps 649 mmHg 81%
    08:00 +20°C° 0.2 mm 0 mps 649 mmHg 76%
    09:00 +23°C° 0.2 mm 1 mps 650 mmHg 70%
    10:00 +25°C° 0.2 mm 1 mps 650 mmHg 65%
    11:00 +26°C° 0.3 mm 1 mps 650 mmHg 62%
    12:00 +26°C° 0.3 mm 1 mps 649 mmHg 58%
    13:00 +27°C° 0.3 mm 1 mps 648 mmHg 55%
    14:00 +27°C° 0.3 mm 1 mps 648 mmHg 56%
    15:00 +27°C° 0.3 mm 1 mps 648 mmHg 56%
    16:00 +27°C° 0.3 mm 1 mps 647 mmHg 57%
    17:00 +25°C° 0.1 mm 1 mps 647 mmHg 61%
    18:00 +22°C° 0.1 mm 0 mps 647 mmHg 66%
    19:00 +20°C° 0.1 mm 0 mps 648 mmHg 71%
    20:00 +22°C° 0 mm 1 mps 648 mmHg 71%
    21:00 +22°C° 0 mm 1 mps 649 mmHg 72%
    22:00 +22°C° 0 mm 1 mps 649 mmHg 72%
    23:00 +21°C° 0.1 mm 1 mps 649 mmHg 73%

    24 April, Wednesday

    Time Temperature Precipitation Wind Pressure Humidity
    00:00 +19°C° 0.1 mm 0 mps 648 mmHg 74%
    01:00 +19°C° 0.1 mm 0 mps 648 mmHg 75%
    02:00 +19°C° 0.1 mm 0 mps 648 mmHg 75%
    03:00 +18°C° 0.1 mm 0 mps 648 mmHg 76%
    04:00 +18°C° 0.1 mm 0 mps 648 mmHg 77%
    05:00 +19°C° 0.1 mm 0 mps 648 mmHg 75%
    06:00 +19°C° 0.1 mm 0 mps 649 mmHg 73%
    07:00 +20°C° 0.1 mm 0 mps 649 mmHg 71%
    08:00 +23°C° 0.1 mm 1 mps 650 mmHg 67%
    09:00 +25°C° 0.1 mm 1 mps 650 mmHg 64%
    10:00 +26°C° 0.1 mm 2 mps 650 mmHg 60%
    11:00 +27°C° 0.1 mm 2 mps 650 mmHg 57%
    12:00 +28°C° 0.1 mm 2 mps 649 mmHg 54%
    13:00 +29°C° 0.1 mm 2 mps 649 mmHg 51%
    14:00 +29°C° 0.2 mm 2 mps 648 mmHg 51%
    15:00 +29°C° 0.2 mm 2 mps 648 mmHg 52%
    16:00 +29°C° 0.2 mm 1 mps 647 mmHg 53%
    17:00 +27°C° 0.4 mm 1 mps 647 mmHg 58%
    18:00 +25°C° 0.4 mm 1 mps 648 mmHg 63%
    19:00 +24°C° 0.4 mm 1 mps 648 mmHg 69%
    20:00 +23°C° 1.1 mm 1 mps 648 mmHg 71%
    21:00 +23°C° 1.1 mm 1 mps 648 mmHg 73%
    22:00 +22°C° 1.1 mm 1 mps 649 mmHg 75%
    23:00 +22°C° 1.2 mm 1 mps 648 mmHg 76%
    Show more